Weather History for PAQT - March, 2014

Change the Weather History Date:

Thursday, March 27, 2014

  Actual Average (PAKU) Record (PAKU)
Temperature  
Mean Temperature -2 °F -  
Max Temperature 6 °F -5 °F 11 °F (1992)
Min Temperature -9 °F -15 °F -36 °F (2004)
Degree Days  
Heating Degree Days 66    
Moisture  
Dew Point -5 °F    
Average Humidity 88    
Maximum Humidity 96    
Minimum Humidity 80    
Precipitation  
Precipitation 0.00 in - - ()
Sea Level Pressure  
Sea Level Pressure 30.03 in    
Wind  
Wind Speed 9 mph (SW)    
Max Wind Speed 13 mph    
Max Gust Speed -    
Visibility 10 miles    
Events      
Averages and records for this station are not official NWS values.
T = Trace of Precipitation, MM = Missing Value Source: NWS Daily Summary

Daily Weather History Graph

Daily Weather History Graph

Search for Another Location

Airport or City:

Trip Planner

Search our weather history database for the weather conditions in past years. The results will help you decide how hot, cold, wet, or windy it might be!

Date:

Astronomy

Mar. 27, 2014 Rise Set
Actual Time 7:28 AM AKDT 8:52 PM AKDT
Civil Twilight 6:24 AM AKDT 9:56 PM AKDT
Nautical Twilight 4:56 AM AKDT 11:27 PM AKDT
Astronomical Twilight 2:41 AM AKDT 1:36 AM AKDT
Moon 7:09 AM AKDT (3/27) 4:20 PM AKDT (3/27)
Length of Visible Light 15h 32m
Length of Day
13h 23m
Waning Crescent, 12% of the Moon is Illuminated
Mar 27
Waning Crescent
Mar 30
New
Apr 7
First Quarter
Apr 14
Full
Apr 21
Last Quarter

Hourly Weather History & Observations

Time (AKDT) Temp. Windchill Dew Point Humidity Pressure Visibility Wind Dir Wind Speed Gust Speed Precip Events Conditions
12:53 AM 1.0 °F -16.6 °F -2.0 °F 87% 29.95 in 10.0 mi East 12.7 mph - 0.00 in   Clear
1:53 AM 1.0 °F -15.8 °F -2.0 °F 87% 29.95 in 10.0 mi East 11.5 mph - 0.00 in   Clear
2:53 AM -0.9 °F -19.1 °F -4.0 °F 87% 29.95 in 10.0 mi ENE 12.7 mph - 0.00 in   Clear
3:53 AM -2.0 °F -18.7 °F -6.0 °F 83% 29.96 in 10.0 mi ENE 10.4 mph - N/A   Clear
4:53 AM -4.0 °F - -6.0 °F 91% 29.97 in 10.0 mi Calm Calm - N/A   Clear
5:53 AM -5.1 °F -13.6 °F -8.0 °F 87% 29.98 in 10.0 mi East 3.5 mph - N/A   Clear
6:53 AM -4.0 °F -14.6 °F -7.1 °F 87% 29.98 in 10.0 mi ESE 4.6 mph - N/A   Clear
7:53 AM -7.1 °F -23.9 °F -9.0 °F 91% 29.99 in 10.0 mi South 9.2 mph - N/A   Clear
8:53 AM -9.9 °F -30.5 °F -13.0 °F 86% 29.99 in 10.0 mi SSW 12.7 mph - N/A   Clear
9:53 AM -7.1 °F -22.8 °F -9.0 °F 91% 30.01 in 10.0 mi SW 8.1 mph - N/A   Clear
10:53 AM -4.0 °F -17.8 °F -7.1 °F 87% 30.02 in 10.0 mi SW 6.9 mph - N/A   Clear
11:53 AM -2.9 °F -18.8 °F -7.1 °F 82% 30.03 in 10.0 mi SW 9.2 mph - N/A   Clear
12:53 PM -0.0 °F -11.6 °F -2.9 °F 88% 30.04 in 10.0 mi SSW 5.8 mph - N/A   Clear
1:53 PM 3.0 °F -9.3 °F -2.0 °F 80% 30.05 in 10.0 mi WSW 6.9 mph - 0.00 in   Clear
2:53 PM 3.9 °F -10.4 °F -0.0 °F 84% 30.06 in 10.0 mi WSW 9.2 mph - 0.00 in   Clear
3:53 PM 6.1 °F -5.6 °F 1.9 °F 83% 30.07 in 10.0 mi WSW 6.9 mph - N/A   Clear
4:53 PM 5.0 °F -8.1 °F 1.9 °F 87% 30.07 in 10.0 mi WSW 8.1 mph - N/A   Clear
5:53 PM 3.9 °F -5.3 °F 1.9 °F 91% 30.08 in 10.0 mi WSW 4.6 mph - 0.00 in   Clear
6:53 PM 1.9 °F -7.6 °F -0.0 °F 91% 30.09 in 10.0 mi WSW 4.6 mph - 0.00 in   Clear
7:53 PM -0.9 °F -11.0 °F -2.9 °F 91% 30.09 in 10.0 mi WSW 4.6 mph - 0.00 in   Clear
8:53 PM -6.0 °F -20.1 °F -7.1 °F 95% 30.11 in 10.0 mi SW 6.9 mph - 0.00 in   Clear
9:53 PM -7.1 °F -25.0 °F -8.0 °F 96% 30.11 in 10.0 mi WSW 10.4 mph - N/A   Clear
10:53 PM -9.0 °F -28.4 °F -11.9 °F 87% 30.11 in 10.0 mi WSW 11.5 mph - N/A   Clear
11:53 PM -9.0 °F -27.4 °F -11.0 °F 91% 30.11 in 10.0 mi West 10.4 mph - N/A   Clear